Location: *
(50.3181°N, 7.1558°E)
Time: 23:07:13
(UTC+00:00)

Daily predictions for brighter satellites

Satellite Brightness Start Highest point End
(mag) Time Altitude Azimuth Time Altitude Azimuth Time Altitude Azimuth
ATLAS 2AS CENTAUR R/B 3.0 17:58:11 10° NW 18:06:03 89° NE 18:13:15 10° SE
NOSS 0 Rocket 4.1 18:01:00 10° NNW 18:07:08 58° NE 18:13:15 10° SE
SPOT 3 Rocket 4.4 18:03:13 10° ESE 18:07:40 30° ENE 18:12:08 10° N
YAOGAN 1 3.3 18:08:22 10° S 18:12:39 59° W 18:16:57 10° NNW
CZ-4 R/B 2.8 18:09:49 10° S 18:13:31 41° W 18:17:18 10° NNW
Cosmos 2327 Rocket 4.5 18:09:42 10° N 18:15:59 71° ENE 18:22:06 10° SSE
ASTEX 1 4.1 18:12:03 10° NNE 18:16:27 32° E 18:20:50 10° SSE
USA 186 3.0 18:14:03 10° SE 18:16:58 27° ENE 18:19:55 10° N
Nadezhda 1 Rocket 4.1 18:12:08 10° SSE 18:17:59 54° E 18:23:55 10° NNE
Cosmos 1707 3.3 18:15:07 10° N 18:18:49 39° ENE 18:22:31 10° SE
SL-16 R/B 3.5 18:15:17 10° NNW 18:19:59 25° NE 18:24:38 10° E
Cosmos 1461 2.8 18:16:10 10° SSW 18:20:08 61° SE 18:24:03 10° NE
SOZ 4.5 18:19:04 10° WNW 18:21:11 68° SSW 18:24:10 10° ESE
Okean 1-7 Rocket 4.5 18:20:44 10° N 18:24:40 30° ENE 18:28:36 10° SE
COSMOS 2455 4.0 18:19:11 10° NW 18:24:54 45° WSW 18:30:34 10° S
Cosmos 2219 Rocket 2.4 18:19:43 10° NNW 18:25:20 77° WSW 18:30:55 10° SSE
Timation 2 Rocket 4.0 18:23:40 10° SSW 18:30:14 83° ESE 18:36:34 10° NNE
COSMO-SKYMED 1 4.1 18:27:12 10° N 18:31:19 42° WNW 18:35:24 10° SW
SJ-6B 3.4 18:27:54 10° SE 18:31:45 39° ENE 18:35:34 10° N
ERBS 3.4 18:29:24 10° NW 18:32:32 33° NNE 18:35:13 13° E
COSMOS 2428 3.1 18:27:33 10° NNW 18:33:12 67° WSW 18:38:49 10° SSE
Aureole 1 Rocket 4.0 18:29:06 10° NNW 18:34:25 55° WSW 18:38:26 10° S
Cosmos 1300 Rocket 4.2 18:30:39 10° SSW 18:34:54 59° WNW 18:39:12 10° N
NOAA 11 4.4 18:30:40 10° S 18:36:10 76° WSW 18:41:41 10° NNW
H-2A R/B 2.5 18:33:32 10° SE 18:38:05 38° ENE 18:42:44 10° N
ISS -1.6 18:38:25 10° SSE 18:39:18 11° SE 18:39:18 11° SE
MOS 1 4.3 18:34:47 10° SSE 18:40:29 82° ENE 18:46:13 10° NNW
Cosmos 2151 Rocket 4.5 18:37:09 10° SSW 18:41:27 53° WNW 18:45:47 10° N
SJ-11-01 4.3 18:38:41 10° SSE 18:43:23 68° ENE 18:48:08 10° N
CZ-2D R/B 4.4 18:41:05 10° S 18:44:44 45° W 18:48:25 10° NNW
Cosmos 1939 Rocket 3.7 18:42:06 10° S 18:45:51 52° W 18:49:39 10° NNW
Cosmos 1190 Rocket 4.1 18:44:04 10° NNW 18:49:22 64° ENE 18:54:15 12° SE
SAR-Lupe-2 3.5 18:47:29 10° NNE 18:51:03 64° ESE 18:54:36 10° S
Lacrosse 5 rocket 3.3 18:49:45 10° SSE 18:49:55 11° SSE 18:49:55 11° SSE
Cosmos 1544 3.3 18:51:18 10° SSW 18:54:52 70° WNW 18:58:30 10° N
Cosmos 2227 Rocket 2.9 18:50:18 10° SSE 18:55:08 30° ESE 19:00:00 10° NE
Cosmos 2219 3.4 18:50:57 10° S 18:56:28 50° ESE 19:01:59 10° NE
Cosmos 2341 Rocket 3.9 18:51:51 10° N 18:58:08 73° E 19:04:20 10° SSE
Cosmos 1455 Rocket 3.8 18:54:42 10° SSE 18:58:39 32° E 19:02:38 10° NNE
ARGOS 3.3 18:53:48 11° SE 18:58:46 54° ENE 19:04:02 10° N
CZ-2C R/B 3.6 18:56:26 10° NNE 19:00:53 63° ESE 19:05:16 10° S
Cosmos 389 Rocket 2.3 18:58:07 10° N 19:01:35 81° E 19:04:29 14° SSE
Cosmos 2181 Rocket 4.2 18:56:19 10° SSE 19:02:15 48° E 19:08:19 10° NNE
Cosmos 2297 Rocket 2.6 19:00:38 10° S 19:05:46 37° ESE 19:10:57 10° NE
Meteor 1-15 Rocket 4.3 19:00:28 10° S 19:06:08 62° E 19:11:57 10° NNE
Cosmos 2084 Rocket 4.4 19:03:24 10° S 19:07:06 26° ESE 19:07:33 26° ESE
Ariane Rocket 4.4 19:05:36 10° SSW 19:10:18 38° W 19:15:03 10° NNW
NOSS 3-4 (A) 4.3 19:06:32 10° NW 19:13:21 59° SW 19:20:46 10° SSE
NOSS 3-4 (C) 4.3 19:06:38 10° NW 19:13:28 60° SW 19:20:50 10° SSE
Cosmos 1437 Rocket 3.2 19:09:51 10° N 19:13:29 40° ENE 19:14:27 33° ESE
Cosmos 614 Rocket 4.0 19:08:44 10° NNW 19:14:00 81° WSW 19:18:31 14° SSE
FREGAT/IRIS 4.2 19:12:24 10° SSW 19:14:58 32° W 19:17:34 10° NNW
Cosmos 1626 Rocket 4.3 19:11:34 10° N 19:15:31 33° ENE 19:16:27 30° E
Cosmos 405 Rocket 2.6 19:12:16 10° S 19:15:52 57° E 19:19:32 10° NNE
Cosmos 2218 Rocket 4.1 19:10:08 10° N 19:16:30 62° ENE 19:21:36 16° SSE
MetOp-A 4.3 19:16:20 23° SE 19:19:31 54° ENE 19:24:45 10° N
Cosmos 2366 rocket 4.1 19:13:39 10° N 19:19:59 62° ENE 19:24:45 18° SSE
Cosmos 407 Rocket 3.7 19:15:27 10° NNW 19:20:34 69° WSW 19:25:02 13° S
Cosmos 2056 Rocket 3.6 19:15:18 10° S 19:20:36 58° ESE 19:25:56 10° NNE
Okean 1 Rocket 4.1 19:16:40 10° SSW 19:20:51 47° WNW 19:25:07 10° N
Resurs 1-3 3.5 19:21:40 27° SSE 19:24:00 68° ENE 19:28:23 10° N
GENESIS II 4.3 19:21:01 10° NW 19:25:10 85° SW 19:26:43 37° SE
CZ-4C R/B 4.2 19:21:06 10° NW 19:26:09 26° N 19:31:55 10° NE
Cosmos 2333 Rocket 4.1 19:21:27 10° NW 19:26:14 28° WSW 19:31:02 10° SSW
Meteor 2-17 Rocket 4.4 19:20:56 10° N 19:27:04 87° W 19:33:08 10° S
Meteor 1-4 Rocket 2.7 19:23:32 10° NNW 19:27:05 68° W 19:29:06 23° S
Meteor 1-24 Rocket 3.9 19:21:27 10° N 19:27:08 58° ENE 19:30:18 27° SE
In-Cosmos 22 4.3 19:24:25 10° NNW 19:29:46 72° W 19:35:11 10° S
SL-8 Rocket 3.9 19:23:57 10° N 19:30:12 87° E 19:35:53 12° S
Resurs 01 Rocket 1.6 19:29:23 35° SE 19:31:05 62° ENE 19:35:29 10° N
SL-08 RB Rocket 3.7 19:29:16 28° SSE 19:31:43 74° ENE 19:36:24 10° N
RESURS DK-1 3.4 19:28:11 10° NNW 19:31:52 29° NE 19:32:24 28° ENE
Cosmos 1624 Rocket 3.8 19:27:20 10° SSW 19:32:30 74° ESE 19:37:42 10° NNE
CZ-2C R/B 3.1 19:29:58 28° SE 19:32:49 66° ENE 19:38:20 10° N
ADEOS Rocket 3.5 19:26:24 10° NNE 19:33:40 68° ESE 19:41:22 10° S
Cosmos 2237 Rocket 2.7 19:28:20 10° NW 19:33:56 57° WSW 19:38:27 16° S
USA 234 3.9 19:28:42 12° ENE 19:34:32 50° N 19:40:49 10° WNW
SL-24 R/B 4.3 19:34:07 34° SE 19:36:03 70° ENE 19:41:04 10° N
Cosmos 1602 Rocket 3.9 19:32:07 10° N 19:36:17 42° ENE 19:36:39 41° E
SL-8 R/B 3.6 19:33:38 10° W 19:38:25 72° S 19:39:50 44° ESE
Cosmos 1674 2.5 19:35:47 10° N 19:39:31 72° E 19:39:57 63° SE
BREEZE-M DEB (TANK) 4.4 19:28:03 10° WNW 19:40:01 45° SW 19:41:50 29° SSE
ERS-1 Rocket 4.1 19:40:38 25° ENE 19:41:02 25° ENE 19:45:07 10° N
Cosmos 1805 3.4 19:42:10 53° ENE 19:42:10 53° ENE 19:45:42 10° NNE
Cosmos 1954 Rocket 3.9 19:37:09 10° NNW 19:42:26 86° WSW 19:44:49 33° SSE
Cosmos 1959 Rocket 4.4 19:37:45 10° N 19:43:56 89° WSW 19:48:25 20° S
Cosmos 1140 Rocket 3.8 19:39:49 10° NNW 19:44:58 64° WSW 19:47:56 25° S
SPOT 3 Rocket 4.5 19:41:57 10° S 19:46:53 46° W 19:51:52 10° NNW
Spot 2 Rocket 3.6 19:45:58 44° ESE 19:47:10 56° ENE 19:52:07 10° N
USA 186 4.2 19:45:02 10° SSW 19:47:53 24° W 19:50:45 10° NW
Meteor 2-5 Rocket 3.9 19:43:39 10° NNW 19:49:28 76° W 19:53:38 20° S
Cosmos 1603 4.4 19:54:26 10° NNW 19:59:43 38° NE 20:00:42 35° ENE
KORONAS-FOTON 3.9 19:58:57 10° NNW 20:02:45 71° W 20:02:51 70° WSW
SL-16 R/B 2.2 19:59:04 10° NNW 20:04:46 80° WSW 20:06:32 46° SSE
Meteor 1-22 Rocket 4.3 20:01:13 22° S 20:05:23 78° E 20:11:31 10° NNE
ERBS 3.4 20:05:46 10° WNW 20:08:14 43° WNW 20:08:14 43° WNW
SL-14 R/B 4.0 20:10:48 10° N 20:13:46 46° NNE 20:13:46 46° NNE
Cosmos 1452 Rocket 3.6 20:15:45 57° ENE 20:15:45 57° ENE 20:20:15 10° NNE
Landsat 7 4.4 20:17:29 45° NE 20:17:29 45° NE 20:21:30 10° N
H-2A R/B 3.4 20:13:51 14° SSW 20:17:33 34° W 20:22:08 10° NNW
SPOT 5 3.8 20:18:58 36° NE 20:18:58 36° NE 20:22:55 10° N
CZ-2C R/B 3.0 20:13:12 10° NNE 20:17:56 49° ENE 20:17:56 49° ENE
Cosmos 2082 3.6 20:15:59 10° SSW 20:21:43 82° ESE 20:27:28 10° NNE
Cosmos 1766 4.1 20:25:16 46° W 20:25:34 47° WNW 20:29:24 10° N
Meteor 2-12 Rocket 4.3 20:20:58 10° N 20:27:06 74° ENE 20:27:50 66° SE
Cosmos 1934 Rocket 4.1 20:25:32 10° N 20:31:33 55° ENE 20:31:34 55° ENE
MetOp-B 4.2 20:33:25 60° SSW 20:34:11 70° WSW 20:39:34 10° NNW
Cosmos 1626 3.8 20:31:10 10° N 20:33:09 30° N 20:33:09 30° N
Cosmos 2227 Rocket 2.8 20:33:22 10° SW 20:38:55 55° NW 20:44:30 10° NNE
USA 245 4.4 20:45:55 66° SSW 20:46:43 76° WSW 20:52:28 10° NNW
Cosmos 1850 Rocket 4.3 20:42:03 10° NNW 20:47:06 58° WSW 20:47:06 58° WSW
Terra 3.0 20:49:57 35° NNE 20:49:57 35° NNE 20:53:04 10° N
Cosmos 2297 Rocket 3.2 20:44:19 10° SW 20:49:45 45° NW 20:55:12 10° NNE
Nadezhda 3 Rocket 4.0 20:57:57 69° SW 20:58:37 77° W 21:04:52 10° N
Meteor 1-21 Rocket 4.3 20:53:34 10° NNW 20:59:18 81° WNW 20:59:18 81° WNW
Cosmos 2263 Rocket 4.5 21:08:26 13° NE 21:08:26 13° NE 21:09:01 10° NE
Cosmos 1943 3.5 21:01:46 10° NNW 21:06:39 63° N 21:06:39 63° N
Resurs 01 Rocket 3.9 21:06:58 16° WSW 21:07:59 17° W 21:10:58 10° NW
RESURS DK-1 4.4 21:06:08 10° NW 21:08:17 26° WNW 21:08:17 26° WNW
Cosmos 1605 Rocket 4.1 21:04:49 10° N 21:10:33 66° NE 21:10:33 66° NE
Cosmos 1821 Rocket 4.4 21:08:05 10° NNW 21:14:02 52° W 21:14:38 50° WSW
SPOT 1/Viking Rocket 4.3 21:17:27 50° WNW 21:17:27 50° WNW 21:21:39 10° NNW
CZ-4C R/B 3.8 21:10:29 10° NW 21:16:34 37° NNE 21:18:31 32° ENE
USA 234 3.5 21:16:03 54° NE 21:17:02 60° NNE 21:23:28 10° WNW
ERS-1 Rocket 3.9 21:20:39 45° NW 21:20:39 45° NW 21:24:29 10° NNW
SL-16 R/B 4.5 21:45:01 10° WNW 21:47:58 14° W 21:48:25 14° WSW
CZ-2C R/B 4.2 21:53:54 10° N 21:58:42 31° WNW 21:59:26 30° WNW
Cosmos 2082 Rocket 4.3 22:15:52 10° N 22:19:45 18° NNE 22:20:12 18° NE
Terra 4.3 22:28:51 17° NW 22:28:51 17° NW 22:30:25 10° NW
Cosmos 2263 Rocket 3.9 22:50:05 30° N 22:50:05 30° N 22:53:11 10° NNE
Cosmos 1833 Rocket 4.5 22:55:01 10° NNW 22:58:16 27° NNE 22:58:16 27° NNE
CZ-4C R/B 3.5 22:58:59 10° NW 23:03:41 49° NW 23:03:41 49° NW
ATLAS CENTAUR R/B 4.4 23:28:43 16° NNE 23:28:43 16° NNE 23:29:53 10° NNE
SJ 16-02 4.4 23:29:30 10° N 23:30:12 13° NNE 23:30:12 13° NNE
Mayak 2.0 23:30:51 10° NNW 23:30:54 10° NNW 23:30:54 10° NNW
